#timestamp,LO_Frequency,Hit,StdDev 
1580893215.0,286046996.1,N
1580893215.9,286046996.1,N
1580893235.8,286046996.0,N
1580893255.6,286046994.0,Y
1580893275.5,286046994.9,P
1580893295.3,286046995.1,P
1580893315.1,286046996.5,P
1580893335.9,286046999.4,N
1580893355.7,286047001.2,N
1580893375.6,286047000.6,N
1580893395.4,286046998.7,N
1580893415.3,286046999.0,N
1580893435.1,286046999.2,N
1580893455.9,286046998.7,N
1580893475.9,286046999.2,N
1580893495.7,286046995.7,N
1580893545.6,286046997.7,E
1580893555.5,286046996.5,N
1580893575.3,286047001.1,P
1580893595.2,286046998.8,N
1580893615.0,286047000.6,N
1580893615.9,286047000.6,N
1580893635.8,286047001.5,N
1580893655.6,286047003.9,N
1580893675.4,286047004.0,N
1580893695.3,286047003.6,N
1580893715.1,286047005.8,N
1580893735.8,286047007.6,N
1580893755.7,286047007.5,N
1580893775.5,286047007.5,N
1580893795.4,286047004.6,N
1580893815.2,286047006.8,N
1580893835.0,286047006.2,N
1580893835.9,286047006.2,N
1580893855.8,286047007.3,N
1580893875.6,286047004.6,N
1580893895.4,286047007.6,N
1580893915.3,286047007.3,N
1580893935.1,286047007.0,N
1580893955.9,286047006.2,N
1580893975.7,286047007.2,N
1580893995.5,286047005.0,N
1580894015.4,286047004.5,N
1580894035.2,286047004.8,N
1580894055.1,286047004.9,N
1580894056.0,286047004.9,N
1580894075.8,286047007.4,N
1580894095.6,286047007.2,N
1580894115.5,286047006.6,N
1580894135.3,286047007.7,Y
1580894155.2,286047003.8,P
1580894175.9,286047005.5,P
1580894195.7,286047003.4,P
1580894215.6,286047005.1,Y
1580894235.4,286047000.2,P
1580894255.3,286047002.7,N
1580894275.1,286047002.3,N
1580894295.8,286047003.9,N
1580894315.7,286047002.5,N
1580894335.5,286047002.2,N
1580894355.4,286047002.3,N
1580894375.2,286047002.8,N
1580894395.0,286047002.8,N
1580894395.9,286047002.8,N
1580894415.8,286047003.9,Y
1580894435.6,286047002.3,P
1580894455.4,286046998.1,P
1580894475.3,286046998.4,N
1580894495.1,286046998.4,N
1580894515.9,286047000.4,N
1580894535.7,286047002.5,N
1580894555.5,286047001.3,N
1580894575.4,286047003.7,N
1580894595.2,286047004.3,N
1580894615.1,286047002.2,N
1580894616.0,286047002.2,N
1580894635.8,286047002.4,N
1580894655.6,286046999.7,N
1580894675.5,286047000.6,N
1580894695.3,286047001.6,N
1580894715.1,286047002.4,N
1580894735.9,286046999.7,N
1580894755.7,286047001.4,N
1580894775.6,286047004.4,N
1580894795.4,286047004.1,N
1580894815.2,286047003.4,N
1580894835.1,286047005.4,N
1580894836.0,286047005.4,N
1580894855.8,286047005.3,N
1580894875.6,286047004.1,N
1580894895.5,286047004.2,N
1580894915.3,286047006.0,N
1580894935.2,286047003.4,N
1580894955.9,286047005.5,N
1580894975.7,286047007.5,Y
1580894995.6,286047003.1,P
1580895015.4,286047004.0,P
1580895035.3,286047002.6,P
1580895055.1,286047001.9,Y
1580895056.0,286047001.9,P
1580895075.8,286046998.8,N
1580895095.7,286046996.7,N
1580895115.5,286046996.5,N
1580895135.3,286046998.2,N
1580895155.2,286046999.4,N
1580895175.0,286046998.2,N
1580895175.9,286046998.2,N
1580895195.8,286047001.2,N
1580895215.6,286046998.4,N
1580895235.4,286047000.7,N
1580895255.3,286047000.8,N
1580895275.1,286046999.2,N
1580895295.9,286046998.1,N
1580895315.7,286047000.7,N
1580895335.5,286047000.7,N
1580895355.4,286046999.4,N
1580895375.2,286046996.6,N
1580895395.0,286046997.1,N
1580895396.0,286046997.1,N
1580895415.8,286046996.7,N
1580895435.6,286046997.2,N
1580895485.5,286046998.5,E
1580895495.4,286046999.8,N
1580895515.2,286047002.1,P
1580895535.1,286047000.1,N
1580895536.0,286047000.1,N
1580895555.8,286047001.6,N
1580895575.7,286047002.5,N
1580895595.5,286047001.4,N
1580895615.3,286047001.9,N
1580895635.2,286047003.9,Y
1580895655.0,286047001.7,P
1580895655.9,286047001.7,P
1580895675.8,286047004.0,P
1580895695.6,286047003.1,N
1580895715.4,286047004.1,Y
1580895735.3,286047002.1,P
1580895755.1,286047000.0,N
1580895775.8,286047001.2,N
1580895795.7,286047000.6,N
1580895815.5,286047001.1,N
1580895835.4,286047000.8,N
1580895855.2,286047000.1,N
1580895875.0,286047002.8,Y
1580895875.9,286047002.8,P
1580895895.8,286047000.1,N
1580895915.6,286047001.6,N
1580895935.5,286047000.1,N
1580895955.3,286047002.7,N
1580895975.1,286047000.1,N
1580895995.9,286047000.9,N
1580896015.7,286047000.6,N
1580896035.5,286047002.2,N
1580896055.4,286047001.0,N
1580896075.2,286047000.3,N
1580896095.1,286047001.1,N
1580896096.0,286047001.1,N
1580896115.8,286046998.7,N
1580896135.6,286046998.2,N
1580896155.5,286046999.2,N
1580896175.3,286046999.3,N
1580896195.2,286047000.9,N
1580896215.9,286046999.0,N
1580896235.7,286046998.3,N
1580896255.6,286047004.3,Y
1580896275.4,286047003.1,P
1580896295.3,286047011.9,P
1580896315.1,286047002.8,N
1580896316.0,286047002.8,N
1580896335.8,286046999.6,N
1580896355.7,286047000.4,N
1580896375.5,286047002.8,N
1580896395.4,286047002.8,N
1580896415.2,286047002.7,N
1580896435.0,286047001.8,N
1580896435.9,286047001.8,N
1580896455.8,286047003.8,N
1580896475.6,286047003.3,N
1580896495.5,286047005.9,N
1580896515.3,286047001.8,N
1580896535.1,286047002.3,N
1580896555.9,286047000.6,N
1580896575.7,286047002.0,N
1580896595.5,286047002.6,N
1580896615.4,286047001.2,N
1580896635.2,286047000.6,N
1580896655.1,286047001.1,N
1580896656.0,286047001.1,N
1580896675.8,286047000.6,N
1580896695.6,286047001.0,N
1580896715.5,286046998.1,N
1580896735.3,286047001.2,N
1580896755.2,286047000.6,N
1580896775.9,286046998.4,N
1580896795.7,286046999.8,N
